Observations for Trim Market St
| Time | AQI | Temp °C | Hum % | Pres Pa | CO μg/m³ | H₂S μg/m³ | NO μg/m³ | NO₂ μg/m³ | O₃ μg/m³ | SO₂ μg/m³ | PM1 μg/m³ | PM2.5 μg/m³ | PM10 μg/m³ |
|---|---|---|---|---|---|---|---|---|---|---|---|---|---|
| Saturday 11 July 2026 | |||||||||||||
| 04:57 | 1 | 16.4 | 68 | 56,905 | 0.07 | 0 | 0 | 1.06 | 21.17 | 0 | 0 | 1.66 | 3.08 |
| 04:55 | 1 | 16.5 | 68 | 56,892 | 0.1 | 0 | 0 | 5.13 | 37.15 | 0 | 0 | 1.66 | 4.35 |
| 04:49 | 1 | 16.5 | 68 | 56,865 | 0.08 | 0 | 0 | 2.62 | 31.16 | 0 | 0 | 1.66 | 3.08 |
| 04:48 | 1 | 16.5 | 68 | 56,862 | 0.09 | 0 | 0.05 | 1.02 | 15.19 | 0 | 0.71 | 1.66 | 3.08 |
| 04:47 | 1 | 16.5 | 68 | 56,861 | 0.09 | 0 | 0.88 | 2.32 | 23.31 | 0 | 0 | 1.66 | 3.72 |
| 04:46 | 1 | 16.5 | 68 | 56,858 | 0.08 | 0 | 0 | 0 | 11.86 | 0 | 0 | 2.15 | 3.72 |
| 04:45 | 1 | 16.5 | 69 | 56,851 | 0.11 | 0 | 0 | 4.01 | 25.21 | 0 | 0 | 1.66 | 3.08 |
| 04:44 | 1 | 16.6 | 69 | 56,843 | 0.11 | 0 | 0 | 0.38 | 16.87 | 0 | 1.43 | 2.63 | 4.35 |
| 04:43 | 1 | 16.6 | 69 | 56,830 | 0.1 | 0 | 0 | 0 | 16 | 0 | 0 | 1.66 | 3.08 |
| 04:42 | 1 | 16.6 | 69 | 56,822 | 0.1 | 0 | 1.07 | 0.48 | 15.23 | 0 | 0 | 1.66 | 4.35 |
| 04:41 | 1 | 16.6 | 69 | 56,818 | 0.09 | 0 | 0.08 | 0 | 10.45 | 0 | 0.71 | 2.14 | 3.72 |
| 04:40 | 1 | 16.6 | 69 | 56,816 | 0.07 | 0 | 0 | 0.47 | 17.15 | 0 | 0 | 1.65 | 3.09 |
| 04:39 | 1 | 16.6 | 69 | 56,813 | 0.07 | 0 | 0 | 0 | 11.94 | 0 | 0 | 1.65 | 3.09 |
| 04:38 | 1 | 16.6 | 69 | 56,818 | 0.04 | 0 | 0 | 0.77 | 15.36 | 0 | 0 | 1.65 | 3.72 |
| 04:37 | 1 | 16.6 | 69 | 56,820 | 0.06 | 0 | 0 | 2.47 | 27.97 | 0 | 0 | 1.65 | 3.09 |
| 04:36 | 1 | 16.6 | 69 | 56,821 | 0.1 | 0 | 0.19 | 1.07 | 19.99 | 0 | 0.71 | 1.65 | 4.36 |
| 04:34 | 1 | 16.6 | 69 | 56,819 | 0.11 | 0 | 0.03 | 3.97 | 34.97 | 0 | 0 | 2.14 | 4.99 |
| 04:33 | 1 | 16.6 | 69 | 56,815 | 0.11 | 0 | 0 | 0 | 14.82 | 0 | 0 | 2.14 | 3.72 |
| 04:32 | 1 | 16.6 | 69 | 56,815 | 0.11 | 0 | 0 | 1.87 | 13.89 | 0 | 0.71 | 2.14 | 4.36 |
| 04:30 | 1 | 16.6 | 69 | 56,815 | 0.09 | 0 | 0 | 1.56 | 21.24 | 0 | 0 | 1.65 | 3.73 |